Location: Aytr�
(46.1357°N, 1.1145°W)
Time: 12:20:35
(UTC+00:00)

Envisat - Visible Passes

Search period start: 21 September 2021 00:00
Search period end: 01 October 2021 00:00
Orbit: 764 x 766 km, 98.2° (Epoch: 20 September)

Date Brightness Start Highest point End Pass type
(mag) Time Alt. Az. Time Alt. Az. Time Alt. Az.
21 Sep 4.4 04:47:52 10° NNE 04:52:42 41° E 04:57:29 10° SSE visible
22 Sep 5.7 04:11:51 10° NE 04:15:34 20° E 04:19:15 10° SE visible
23 Sep 3.4 05:13:02 10° NNE 05:18:08 71° ESE 05:23:11 10° S visible
24 Sep 4.8 04:36:31 10° NNE 04:41:07 33° E 04:45:41 10° SSE visible
25 Sep 5.9 04:00:49 10° NE 04:03:55 16° E 04:07:00 10° SE visible
26 Sep 3.8 05:01:34 10° NNE 05:06:36 56° E 05:11:34 10° S visible
27 Sep 5.2 04:25:14 10° NE 04:29:32 27° E 04:33:47 10° SSE visible
28 Sep 6.1 03:50:05 10° ENE 03:52:15 13° E 03:54:25 10° ESE visible
28 Sep 3.0 05:26:50 10° NNE 05:31:57 87° WNW 05:37:02 10° SSW visible
29 Sep 4.3 04:50:09 10° NNE 04:55:02 45° E 04:59:53 10° S visible
30 Sep 5.6 04:14:02 10° NE 04:17:54 22° E 04:21:46 10° SE visible
